Wetterdaten: Samstag, 10.01.2004
Datum Zeit Temp. A Sch. Temp. A Son. Feuchte A. Luftdruck Regen Wind Richtung Richtung Sonnenschein Helligkeit Taupunkt Windchill
10.01.2004 00:00 3,2 C 3,5 C 86 % 1005 hPa 0,0 l/m 3,8 m/s (1 Bft) W-SW22.5 255 0,00 min 0 lux 1,1 C -2,4 C
10.01.2004 00:05 3,2 C 3,5 C 86 % 1005 hPa 0,0 l/m 3,2 m/s (1 Bft) W22.5 260 0,00 min 0 lux 1,1 C -1,1 C
10.01.2004 00:10 3,3 C 3,5 C 86 % 1005 hPa 0,0 l/m 2,2 m/s (1 Bft) W-SW 245 0,00 min 0 lux 1,2 C 1,9 C
10.01.2004 00:15 3,3 C 3,5 C 86 % 1005 hPa 0,0 l/m 3,6 m/s (1 Bft) W-SW22.5 250 0,00 min 0 lux 1,2 C -1,9 C
10.01.2004 00:20 3,3 C 3,5 C 86 % 1005 hPa 0,0 l/m 3,7 m/s (1 Bft) W-SW22.5 250 0,00 min 0 lux 1,2 C -2,0 C
10.01.2004 00:25 3,3 C 3,5 C 86 % 1005 hPa 0,0 l/m 3,2 m/s (1 Bft) W-SW22.5 250 0,00 min 0 lux 1,2 C -0,8 C
10.01.2004 00:30 3,2 C 3,5 C 86 % 1005 hPa 0,0 l/m 2,2 m/s (1 Bft) W-SW 250 0,00 min 0 lux 1,1 C 1,7 C
10.01.2004 00:35 3,2 C 3,5 C 86 % 1005 hPa 0,0 l/m 3,5 m/s (1 Bft) W-SW 245 0,00 min 0 lux 1,1 C -1,7 C
10.01.2004 00:40 3,2 C 3,5 C 87 % 1005 hPa 0,0 l/m 1,8 m/s (1 Bft) W-SW22.5 240 0,00 min 0 lux 1,2 C 3,0 C
10.01.2004 00:45 3,2 C 3,5 C 87 % 1005 hPa 0,0 l/m 2,6 m/s (1 Bft) W22.5 265 0,00 min 0 lux 1,2 C 0,5 C
10.01.2004 00:50 3,2 C 3,5 C 87 % 1005 hPa 0,0 l/m 2,7 m/s (1 Bft) W-SW22.5 250 0,00 min 0 lux 1,2 C 0,2 C
10.01.2004 00:55 3,2 C 3,4 C 87 % 1005 hPa 0,0 l/m 3,3 m/s (1 Bft) W22.5 260 0,00 min 0 lux 1,2 C -1,3 C
10.01.2004 01:00 3,2 C 3,5 C 87 % 1005 hPa 0,0 l/m 4,6 m/s (1 Bft) W-SW45 250 0,00 min 0 lux 1,2 C -3,9 C
10.01.2004 01:05 3,1 C 3,4 C 87 % 1005 hPa 0,0 l/m 2,9 m/s (1 Bft) W-SW 240 0,00 min 0 lux 1,2 C -0,4 C
10.01.2004 01:10 3,1 C 3,4 C 87 % 1005 hPa 0,0 l/m 4,4 m/s (1 Bft) W-SW22.5 255 0,00 min 0 lux 1,2 C -3,7 C
10.01.2004 01:15 3,1 C 3,4 C 87 % 1006 hPa 0,0 l/m 4,4 m/s (1 Bft) W-SW22.5 255 0,00 min 0 lux 1,2 C -3,7 C
10.01.2004 01:20 3,1 C 3,4 C 87 % 1005 hPa 0,0 l/m 3,2 m/s (1 Bft) W-SW22.5 245 0,00 min 0 lux 1,2 C -1,0 C
10.01.2004 01:25 3,2 C 3,4 C 87 % 1005 hPa 0,0 l/m 4,5 m/s (1 Bft) W-SW22.5 255 0,00 min 0 lux 1,2 C -3,8 C
10.01.2004 01:30 3,3 C 3,5 C 87 % 1006 hPa 0,0 l/m 4,6 m/s (1 Bft) W-SW22.5 245 0,00 min 0 lux 1,3 C -3,8 C
10.01.2004 01:35 3,3 C 3,5 C 86 % 1006 hPa 0,0 l/m 4,6 m/s (1 Bft) W-SW22.5 250 0,00 min 0 lux 1,2 C -3,9 C
10.01.2004 01:40 3,3 C 3,5 C 86 % 1006 hPa 0,0 l/m 3,8 m/s (1 Bft) W22.5 260 0,00 min 0 lux 1,2 C -2,2 C
10.01.2004 01:45 3,3 C 3,5 C 86 % 1006 hPa 0,0 l/m 4,6 m/s (1 Bft) W-SW45 255 0,00 min 0 lux 1,2 C -3,8 C
10.01.2004 01:50 3,3 C 3,5 C 86 % 1006 hPa 0,0 l/m 4,8 m/s (1 Bft) W-SW45 250 0,00 min 0 lux 1,2 C -4,2 C
10.01.2004 01:55 3,4 C 3,5 C 85 % 1006 hPa 0,0 l/m 7,4 m/s (2 Bft) W-SW22.5 250 0,00 min 0 lux 1,1 C -7,7 C
10.01.2004 02:00 3,4 C 3,5 C 85 % 1006 hPa 0,0 l/m 5,4 m/s (1 Bft) W45 260 0,00 min 0 lux 1,1 C -5,0 C
10.01.2004 02:05 3,4 C 3,5 C 85 % 1006 hPa 0,0 l/m 3,9 m/s (1 Bft) W-SW22.5 250 0,00 min 0 lux 1,1 C -2,4 C
10.01.2004 02:10 3,4 C 3,5 C 85 % 1006 hPa 0,0 l/m 5,3 m/s (1 Bft) W-SW22.5 245 0,00 min 0 lux 1,1 C -4,9 C
10.01.2004 02:15 3,5 C 3,6 C 84 % 1006 hPa 0,0 l/m 5,3 m/s (1 Bft) W-SW22.5 250 0,00 min 0 lux 1,1 C -4,7 C
10.01.2004 02:20 3,5 C 3,6 C 84 % 1006 hPa 0,0 l/m 4,9 m/s (1 Bft) W22.5 260 0,00 min 0 lux 1,1 C -4,1 C
10.01.2004 02:25 3,4 C 3,6 C 84 % 1006 hPa 0,0 l/m 3,5 m/s (1 Bft) W-SW22.5 250 0,00 min 0 lux 1,0 C -1,5 C
10.01.2004 02:30 3,4 C 3,6 C 84 % 1006 hPa 0,0 l/m 3,4 m/s (1 Bft) W-SW22.5 250 0,00 min 0 lux 1,0 C -1,3 C
10.01.2004 02:35 3,4 C 3,6 C 84 % 1007 hPa 0,0 l/m 3,8 m/s (1 Bft) W-SW22.5 240 0,00 min 0 lux 1,0 C -2,1 C
10.01.2004 02:40 3,4 C 3,6 C 84 % 1007 hPa 0,0 l/m 4,2 m/s (1 Bft) W-SW22.5 240 0,00 min 0 lux 1,0 C -2,9 C
10.01.2004 02:45 3,2 C 3,5 C 84 % 1007 hPa 0,0 l/m 4,8 m/s (1 Bft) W-SW22.5 245 0,00 min 0 lux 0,8 C -4,3 C
10.01.2004 02:50 3,3 C 3,5 C 84 % 1007 hPa 0,0 l/m 6,0 m/s (2 Bft) W-SW22.5 245 0,00 min 0 lux 0,9 C -6,0 C
10.01.2004 02:55 3,4 C 3,5 C 84 % 1007 hPa 0,0 l/m 4,3 m/s (1 Bft) W-SW22.5 240 0,00 min 0 lux 1,0 C -3,1 C
10.01.2004 03:00 3,4 C 3,5 C 84 % 1007 hPa 0,0 l/m 3,7 m/s (1 Bft) W-SW22.5 245 0,00 min 0 lux 1,0 C -1,9 C
10.01.2004 03:05 3,3 C 3,5 C 84 % 1007 hPa 0,0 l/m 3,5 m/s (1 Bft) W-SW22.5 240 0,00 min 0 lux 0,9 C -1,6 C
10.01.2004 03:10 3,4 C 3,6 C 84 % 1007 hPa 0,0 l/m 4,1 m/s (1 Bft) W-SW22.5 250 0,00 min 0 lux 1,0 C -2,8 C
10.01.2004 03:15 3,4 C 3,6 C 84 % 1007 hPa 0,0 l/m 4,7 m/s (1 Bft) W-SW22.5 250 0,00 min 0 lux 1,0 C -3,8 C
10.01.2004 03:20 3,4 C 3,6 C 84 % 1007 hPa 0,0 l/m 4,1 m/s (1 Bft) W-SW22.5 250 0,00 min 0 lux 1,0 C -2,8 C
10.01.2004 03:25 3,4 C 3,6 C 84 % 1007 hPa 0,0 l/m 3,9 m/s (1 Bft) W-SW22.5 250 0,00 min 0 lux 1,0 C -2,4 C
10.01.2004 03:30 3,4 C 3,6 C 84 % 1007 hPa 0,0 l/m 4,6 m/s (1 Bft) W-SW45 250 0,00 min 0 lux 1,0 C -3,7 C
10.01.2004 03:35 3,5 C 3,6 C 84 % 1007 hPa 0,0 l/m 5,6 m/s (1 Bft) W-SW22.5 250 0,00 min 0 lux 1,1 C -5,2 C
10.01.2004 03:40 3,5 C 3,6 C 84 % 1007 hPa 0,0 l/m 4,0 m/s (1 Bft) W-SW22.5 250 0,00 min 0 lux 1,1 C -2,4 C
10.01.2004 03:45 3,5 C 3,7 C 84 % 1007 hPa 0,0 l/m 4,9 m/s (1 Bft) W-SW22.5 245 0,00 min 0 lux 1,1 C -4,1 C
10.01.2004 03:50 3,5 C 3,7 C 85 % 1007 hPa 0,0 l/m 3,9 m/s (1 Bft) W-SW22.5 245 0,00 min 0 lux 1,2 C -2,2 C
10.01.2004 03:55 3,4 C 3,7 C 85 % 1008 hPa 0,0 l/m 4,1 m/s (1 Bft) W-SW22.5 250 0,00 min 0 lux 1,1 C -2,8 C
10.01.2004 04:00 3,4 C 3,7 C 85 % 1008 hPa 0,0 l/m 3,5 m/s (1 Bft) W-SW22.5 250 0,00 min 0 lux 1,1 C -1,5 C
10.01.2004 04:05 3,4 C 3,7 C 85 % 1008 hPa 0,0 l/m 5,5 m/s (1 Bft) W-SW22.5 245 0,00 min 0 lux 1,1 C -5,2 C
10.01.2004 04:10 3,5 C 3,7 C 86 % 1008 hPa 0,0 l/m 4,9 m/s (1 Bft) W-SW45 245 0,00 min 0 lux 1,4 C -4,1 C
10.01.2004 04:15 3,4 C 3,7 C 86 % 1008 hPa 0,0 l/m 3,3 m/s (1 Bft) W-SW 240 0,00 min 0 lux 1,3 C -1,0 C
10.01.2004 04:20 3,4 C 3,7 C 86 % 1008 hPa 0,0 l/m 2,6 m/s (1 Bft) W-SW 245 0,00 min 0 lux 1,3 C 0,9 C
10.01.2004 04:25 3,4 C 3,7 C 86 % 1008 hPa 0,0 l/m 2,3 m/s (1 Bft) W-SW 245 0,00 min 0 lux 1,3 C 1,7 C
10.01.2004 04:30 3,4 C 3,7 C 86 % 1008 hPa 0,0 l/m 2,2 m/s (1 Bft) SW22.5 235 0,00 min 0 lux 1,3 C 2,0 C
10.01.2004 04:35 3,4 C 3,7 C 86 % 1009 hPa 0,0 l/m 1,6 m/s (1 Bft) W-SW 240 0,00 min 0 lux 1,3 C 3,4 C
10.01.2004 04:40 3,4 C 3,7 C 86 % 1009 hPa 0,0 l/m 2,1 m/s (1 Bft) SW22.5 235 0,00 min 0 lux 1,3 C 2,5 C
10.01.2004 04:45 3,4 C 3,7 C 86 % 1009 hPa 0,0 l/m 1,3 m/s (1 Bft) W-SW 240 0,00 min 0 lux 1,3 C 3,4 C
10.01.2004 04:50 3,4 C 3,7 C 86 % 1009 hPa 0,4 l/m 0,8 m/s (0 Bft) W-SW 240 0,00 min 0 lux 1,3 C 3,4 C
10.01.2004 04:55 3,4 C 3,7 C 86 % 1009 hPa 0,0 l/m 1,5 m/s (1 Bft) W-SW 240 0,00 min 0 lux 1,3 C 3,4 C
10.01.2004 05:00 3,5 C 3,7 C 86 % 1009 hPa 0,0 l/m 2,1 m/s (1 Bft) W-SW22.5 245 0,00 min 0 lux 1,4 C 2,4 C
10.01.2004 05:05 3,5 C 3,7 C 86 % 1009 hPa 0,0 l/m 1,7 m/s (1 Bft) SW22.5 235 0,00 min 0 lux 1,4 C 3,5 C
10.01.2004 05:10 3,5 C 3,7 C 86 % 1009 hPa 0,0 l/m 3,2 m/s (1 Bft) W-SW22.5 245 0,00 min 0 lux 1,4 C -0,6 C
10.01.2004 05:15 3,5 C 3,8 C 86 % 1009 hPa 0,0 l/m 2,4 m/s (1 Bft) SW22.5 235 0,00 min 0 lux 1,4 C 1,4 C
10.01.2004 05:20 3,4 C 3,8 C 86 % 1009 hPa 0,0 l/m 2,4 m/s (1 Bft) W-SW22.5 245 0,00 min 0 lux 1,3 C 1,4 C
10.01.2004 05:25 3,4 C 3,8 C 86 % 1009 hPa 0,0 l/m 4,0 m/s (1 Bft) SW22.5 235 0,00 min 0 lux 1,3 C -2,5 C
10.01.2004 05:30 3,3 C 3,7 C 87 % 1009 hPa 0,0 l/m 1,7 m/s (1 Bft) W-SW 245 0,00 min 0 lux 1,3 C 3,3 C
10.01.2004 05:35 3,3 C 3,7 C 87 % 1009 hPa 0,4 l/m 1,9 m/s (1 Bft) SW 235 0,00 min 0 lux 1,3 C 2,7 C
10.01.2004 05:40 3,2 C 3,7 C 87 % 1009 hPa 0,0 l/m 3,0 m/s (1 Bft) W-SW22.5 245 0,00 min 0 lux 1,2 C -0,5 C
10.01.2004 05:45 3,2 C 3,7 C 87 % 1010 hPa 0,0 l/m 1,6 m/s (1 Bft) W-SW 250 0,00 min 0 lux 1,2 C 3,2 C
10.01.2004 05:50 3,2 C 3,7 C 87 % 1010 hPa 0,0 l/m 1,4 m/s (1 Bft) SW 220 0,00 min 0 lux 1,2 C 3,2 C
10.01.2004 05:55 3,2 C 3,6 C 87 % 1010 hPa 0,0 l/m 1,4 m/s (1 Bft) W-SW22.5 240 0,00 min 0 lux 1,2 C 3,2 C
10.01.2004 06:00 3,2 C 3,6 C 88 % 1010 hPa 0,0 l/m 0,3 m/s (0 Bft) SW 225 0,00 min 0 lux 1,4 C 3,2 C
10.01.2004 06:05 3,2 C 3,6 C 88 % 1010 hPa 0,0 l/m 0,1 m/s (0 Bft) SW 225 0,00 min 0 lux 1,4 C 3,2 C
10.01.2004 06:10 3,2 C 3,6 C 88 % 1010 hPa 0,0 l/m 1,9 m/s (1 Bft) SW22.5 230 0,00 min 0 lux 1,4 C 2,7 C
10.01.2004 06:15 3,3 C 3,7 C 88 % 1010 hPa 0,0 l/m 1,9 m/s (1 Bft) SW 230 0,00 min 0 lux 1,5 C 2,7 C
10.01.2004 06:20 3,3 C 3,6 C 88 % 1010 hPa 0,0 l/m 1,4 m/s (1 Bft) SW 230 0,00 min 0 lux 1,5 C 3,3 C
10.01.2004 06:25 3,3 C 3,7 C 88 % 1010 hPa 0,0 l/m 1,5 m/s (1 Bft) SW 230 0,00 min 0 lux 1,5 C 3,3 C
10.01.2004 06:30 3,4 C 3,7 C 88 % 1010 hPa 0,0 l/m 1,8 m/s (1 Bft) SW 230 0,00 min 0 lux 1,6 C 3,2 C
10.01.2004 06:35 3,4 C 3,7 C 88 % 1010 hPa 0,0 l/m 2,1 m/s (1 Bft) SW 230 0,00 min 0 lux 1,6 C 2,3 C
10.01.2004 06:40 3,5 C 3,7 C 87 % 1010 hPa 0,0 l/m 1,9 m/s (1 Bft) SW 235 0,00 min 0 lux 1,5 C 2,9 C
10.01.2004 06:45 3,5 C 3,7 C 87 % 1010 hPa 0,0 l/m 1,4 m/s (1 Bft) SW 230 0,00 min 0 lux 1,5 C 3,5 C
10.01.2004 06:50 3,5 C 3,8 C 87 % 1010 hPa 0,0 l/m 2,1 m/s (1 Bft) W-SW22.5 240 0,00 min 0 lux 1,5 C 2,4 C
10.01.2004 06:55 3,5 C 3,8 C 87 % 1010 hPa 0,0 l/m 1,6 m/s (1 Bft) SW 235 0,00 min 0 lux 1,5 C 3,5 C
10.01.2004 07:00 3,5 C 3,8 C 87 % 1010 hPa 0,0 l/m 1,9 m/s (1 Bft) SW 230 0,00 min 0 lux 1,5 C 2,9 C
10.01.2004 07:05 3,5 C 3,8 C 87 % 1010 hPa 0,0 l/m 2,6 m/s (1 Bft) W-SW22.5 240 0,00 min 0 lux 1,5 C 1,0 C
10.01.2004 07:10 3,5 C 3,9 C 87 % 1011 hPa 0,0 l/m 2,4 m/s (1 Bft) W-SW22.5 240 0,00 min 0 lux 1,5 C 1,5 C
10.01.2004 07:15 3,5 C 3,9 C 87 % 1011 hPa 0,0 l/m 2,2 m/s (1 Bft) W-SW22.5 245 0,00 min 0 lux 1,5 C 2,2 C
10.01.2004 07:20 3,6 C 3,9 C 87 % 1011 hPa 0,0 l/m 2,5 m/s (1 Bft) W-SW 245 0,00 min 0 lux 1,6 C 1,4 C
10.01.2004 07:25 3,6 C 3,9 C 86 % 1011 hPa 0,0 l/m 2,6 m/s (1 Bft) W-SW 240 0,00 min 0 lux 1,5 C 1,0 C
10.01.2004 07:30 3,6 C 3,9 C 86 % 1011 hPa 0,0 l/m 2,8 m/s (1 Bft) W-SW22.5 240 0,00 min 0 lux 1,5 C 0,5 C
10.01.2004 07:35 3,7 C 3,9 C 86 % 1011 hPa 0,0 l/m 3,2 m/s (1 Bft) W-SW 245 0,00 min 0 lux 1,6 C -0,5 C
10.01.2004 07:40 3,7 C 3,9 C 85 % 1011 hPa 0,0 l/m 4,3 m/s (1 Bft) W-SW22.5 250 0,00 min 0 lux 1,4 C -2,8 C
10.01.2004 07:45 3,7 C 4,0 C 85 % 1011 hPa 0,0 l/m 1,8 m/s (1 Bft) W-SW22.5 250 0,00 min 0 lux 1,4 C 3,7 C
10.01.2004 07:50 3,7 C 4,0 C 85 % 1011 hPa 0,0 l/m 3,9 m/s (1 Bft) W-SW22.5 250 0,00 min 0 lux 1,4 C -2,0 C
10.01.2004 07:55 3,7 C 4,0 C 85 % 1011 hPa 0,0 l/m 4,0 m/s (1 Bft) W-SW22.5 250 0,00 min 0 lux 1,4 C -2,1 C
10.01.2004 08:00 3,7 C 4,0 C 84 % 1012 hPa 0,0 l/m 4,2 m/s (1 Bft) W-SW22.5 250 0,00 min 0 lux 1,3 C -2,6 C
10.01.2004 08:05 3,7 C 4,0 C 84 % 1012 hPa 0,0 l/m 4,8 m/s (1 Bft) W-SW22.5 245 0,00 min 0 lux 1,3 C -3,7 C
10.01.2004 08:10 3,7 C 4,0 C 84 % 1012 hPa 0,0 l/m 3,8 m/s (1 Bft) W-SW22.5 245 0,00 min 0 lux 1,3 C -1,7 C
10.01.2004 08:15 3,7 C 4,1 C 83 % 1012 hPa 0,0 l/m 4,8 m/s (1 Bft) W-SW22.5 245 0,00 min 0 lux 1,1 C -3,6 C
10.01.2004 08:20 3,7 C 4,0 C 83 % 1012 hPa 0,0 l/m 3,4 m/s (1 Bft) W-SW22.5 245 0,00 min 66 lux 1,1 C -0,8 C
10.01.2004 08:25 3,6 C 4,0 C 84 % 1012 hPa 0,0 l/m 2,8 m/s (1 Bft) W-SW22.5 245 0,00 min 103 lux 1,2 C 0,5 C
10.01.2004 08:30 3,6 C 4,0 C 84 % 1012 hPa 0,0 l/m 3,6 m/s (1 Bft) W-SW22.5 245 0,00 min 136 lux 1,2 C -1,4 C
10.01.2004 08:35 3,6 C 4,0 C 84 % 1012 hPa 0,0 l/m 4,2 m/s (1 Bft) W-SW22.5 250 0,00 min 121 lux 1,2 C -2,7 C
10.01.2004 08:40 3,6 C 4,0 C 84 % 1012 hPa 0,0 l/m 3,2 m/s (1 Bft) W-SW22.5 240 0,00 min 151 lux 1,2 C -0,5 C
10.01.2004 08:45 3,7 C 4,0 C 84 % 1012 hPa 0,0 l/m 1,9 m/s (1 Bft) W-SW22.5 250 0,00 min 178 lux 1,3 C 3,3 C
10.01.2004 08:50 3,7 C 4,0 C 83 % 1012 hPa 0,0 l/m 4,8 m/s (1 Bft) W-SW22.5 240 0,00 min 453 lux 1,1 C -3,6 C
10.01.2004 08:55 3,7 C 4,0 C 83 % 1012 hPa 0,0 l/m 3,3 m/s (1 Bft) W-SW22.5 255 0,00 min 475 lux 1,1 C -0,7 C
10.01.2004 09:00 3,7 C 4,0 C 83 % 1013 hPa 0,0 l/m 2,6 m/s (1 Bft) W-SW22.5 255 0,00 min 475 lux 1,1 C 1,1 C
10.01.2004 09:05 3,8 C 4,1 C 83 % 1013 hPa 0,0 l/m 3,6 m/s (1 Bft) W-SW22.5 245 0,00 min 638 lux 1,2 C -1,2 C
10.01.2004 09:10 3,8 C 4,1 C 83 % 1013 hPa 0,0 l/m 2,0 m/s (1 Bft) W-SW 240 0,00 min 1,03 klux 1,2 C 3,1 C
10.01.2004 09:15 3,8 C 4,1 C 83 % 1013 hPa 0,0 l/m 3,6 m/s (1 Bft) W-SW22.5 250 0,00 min 1,22 klux 1,2 C -1,1 C
10.01.2004 09:20 3,8 C 4,1 C 83 % 1013 hPa 0,0 l/m 2,1 m/s (1 Bft) W-SW 255 0,00 min 1,50 klux 1,2 C 2,9 C
10.01.2004 09:25 3,8 C 4,1 C 83 % 1013 hPa 0,0 l/m 1,9 m/s (1 Bft) W-SW22.5 255 0,00 min 1,64 klux 1,2 C 3,5 C
10.01.2004 09:30 3,8 C 4,1 C 83 % 1013 hPa 0,0 l/m 2,8 m/s (1 Bft) W-SW 240 0,00 min 1,71 klux 1,2 C 0,7 C
10.01.2004 09:35 3,9 C 4,1 C 83 % 1013 hPa 0,0 l/m 5,5 m/s (1 Bft) W-SW22.5 245 0,00 min 1,98 klux 1,3 C -4,5 C
10.01.2004 09:40 4,0 C 4,2 C 81 % 1013 hPa 0,0 l/m 3,8 m/s (1 Bft) W-SW22.5 245 0,00 min 1,69 klux 1,0 C -1,5 C
10.01.2004 09:45 3,9 C 4,2 C 81 % 1013 hPa 0,0 l/m 3,3 m/s (1 Bft) W-SW45 250 0,00 min 1,43 klux 0,9 C -0,4 C
10.01.2004 09:50 3,9 C 4,2 C 81 % 1013 hPa 0,0 l/m 2,2 m/s (1 Bft) W-SW22.5 245 0,00 min 3,17 klux 0,9 C 2,5 C
10.01.2004 09:55 4,0 C 4,2 C 80 % 1013 hPa 0,0 l/m 2,4 m/s (1 Bft) W-SW 240 0,00 min 3,61 klux 0,9 C 2,0 C
10.01.2004 10:00 4,0 C 4,2 C 80 % 1013 hPa 0,0 l/m 2,6 m/s (1 Bft) W-SW22.5 245 0,00 min 3,00 klux 0,9 C 1,5 C
10.01.2004 10:05 4,0 C 4,2 C 79 % 1013 hPa 0,0 l/m 2,6 m/s (1 Bft) SW22.5 235 0,00 min 3,25 klux 0,7 C 1,6 C
10.01.2004 10:10 3,9 C 4,3 C 80 % 1013 hPa 0,0 l/m 1,9 m/s (1 Bft) W-SW22.5 250 0,00 min 3,20 klux 0,8 C 3,5 C
10.01.2004 10:15 4,0 C 4,2 C 79 % 1014 hPa 0,0 l/m 1,7 m/s (1 Bft) W-SW22.5 245 0,00 min 3,90 klux 0,7 C 4,0 C
10.01.2004 10:20 4,0 C 4,2 C 78 % 1014 hPa 0,0 l/m 2,6 m/s (1 Bft) W-SW22.5 250 0,00 min 4,08 klux 0,5 C 1,6 C
10.01.2004 10:25 4,0 C 4,3 C 78 % 1014 hPa 0,0 l/m 2,3 m/s (1 Bft) W-SW 240 0,00 min 5,08 klux 0,5 C 2,2 C
10.01.2004 10:30 4,1 C 4,3 C 78 % 1014 hPa 0,0 l/m 2,4 m/s (1 Bft) W-SW22.5 245 0,00 min 5,97 klux 0,6 C 2,2 C
10.01.2004 10:35 4,1 C 4,4 C 78 % 1014 hPa 0,0 l/m 1,9 m/s (1 Bft) SW 230 0,00 min 6,79 klux 0,6 C 3,6 C
10.01.2004 10:40 4,2 C 4,4 C 78 % 1014 hPa 0,0 l/m 2,8 m/s (1 Bft) W-SW 240 0,00 min 8,65 klux 0,7 C 1,3 C
10.01.2004 10:45 4,2 C 4,5 C 78 % 1014 hPa 0,0 l/m 2,0 m/s (1 Bft) W-SW45 250 0,00 min 9,7 klux 0,7 C 3,4 C
10.01.2004 10:50 4,3 C 4,6 C 77 % 1014 hPa 0,0 l/m 1,3 m/s (1 Bft) W22.5 270 0,00 min 10,9 klux 0,6 C 4,3 C
10.01.2004 10:55 4,4 C 4,6 C 77 % 1014 hPa 0,0 l/m 2,7 m/s (1 Bft) SW 235 0,00 min 12,3 klux 0,7 C 1,7 C
10.01.2004 11:00 4,5 C 4,8 C 76 % 1014 hPa 0,0 l/m 2,1 m/s (1 Bft) W-SW 240 0,00 min 12,5 klux 0,6 C 3,6 C
10.01.2004 11:05 4,5 C 4,9 C 76 % 1014 hPa 0,0 l/m 3,5 m/s (1 Bft) W-SW 240 0,00 min 11,0 klux 0,6 C -0,2 C
10.01.2004 11:10 4,5 C 4,9 C 77 % 1014 hPa 0,0 l/m 3,5 m/s (1 Bft) SW22.5 235 0,00 min 10,7 klux 0,8 C -0,1 C
10.01.2004 11:15 4,5 C 4,9 C 76 % 1014 hPa 0,0 l/m 3,0 m/s (1 Bft) W-SW 240 0,00 min 8,26 klux 0,6 C 1,0 C
10.01.2004 11:20 4,5 C 4,9 C 77 % 1014 hPa 0,0 l/m 2,2 m/s (1 Bft) W-SW22.5 255 0,00 min 11,8 klux 0,8 C 3,2 C
10.01.2004 11:25 4,6 C 5,0 C 76 % 1014 hPa 0,0 l/m 1,5 m/s (1 Bft) W-SW 245 0,00 min 16,8 klux 0,7 C 4,6 C
10.01.2004 11:30 4,8 C 5,1 C 76 % 1014 hPa 0,0 l/m 2,4 m/s (1 Bft) W-SW22.5 240 0,00 min 20,2 klux 0,9 C 2,8 C
10.01.2004 11:35 4,9 C 5,2 C 76 % 1014 hPa 0,0 l/m 2,6 m/s (1 Bft) SW22.5 230 0,00 min 17,1 klux 1,0 C 2,3 C
10.01.2004 11:40 5,0 C 5,4 C 75 % 1014 hPa 0,0 l/m 2,9 m/s (1 Bft) W-SW22.5 240 0,00 min 17,6 klux 0,9 C 1,8 C
10.01.2004 11:45 4,8 C 5,4 C 75 % 1014 hPa 0,0 l/m 4,2 m/s (1 Bft) W22.5 260 0,00 min 11,9 klux 0,8 C -1,3 C
10.01.2004 11:50 4,9 C 5,4 C 75 % 1014 hPa 0,0 l/m 2,9 m/s (1 Bft) W22.5 260 0,00 min 9,1 klux 0,8 C 1,7 C
10.01.2004 11:55 4,8 C 5,4 C 75 % 1014 hPa 0,0 l/m 2,6 m/s (1 Bft) W-SW22.5 240 0,00 min 9,9 klux 0,8 C 2,4 C
10.01.2004 12:00 4,8 C 5,4 C 75 % 1014 hPa 0,0 l/m 3,2 m/s (1 Bft) W-SW22.5 250 0,00 min 12,0 klux 0,8 C 0,8 C
10.01.2004 12:05 5,0 C 5,5 C 74 % 1014 hPa 0,0 l/m 3,4 m/s (1 Bft) W-SW22.5 245 0,00 min 13,8 klux 0,8 C 0,7 C
10.01.2004 12:10 5,1 C 5,5 C 74 % 1014 hPa 0,0 l/m 1,7 m/s (1 Bft) W22.5 270 0,00 min 13,5 klux 0,9 C 5,1 C
10.01.2004 12:15 5,1 C 5,6 C 74 % 1014 hPa 0,0 l/m 3,3 m/s (1 Bft) W-SW22.5 240 0,00 min 11,9 klux 0,9 C 1,1 C
10.01.2004 12:20 5,1 C 5,6 C 73 % 1014 hPa 0,0 l/m 3,2 m/s (1 Bft) SW22.5 235 0,00 min 13,9 klux 0,7 C 1,2 C
10.01.2004 12:25 5,2 C 5,6 C 74 % 1014 hPa 0,0 l/m 2,8 m/s (1 Bft) W-SW22.5 240 0,00 min 12,2 klux 1,0 C 2,4 C
10.01.2004 12:30 5,2 C 5,6 C 74 % 1014 hPa 0,0 l/m 2,0 m/s (1 Bft) W45 260 0,00 min 7,51 klux 1,0 C 4,4 C
10.01.2004 12:35 5,0 C 5,6 C 73 % 1014 hPa 0,0 l/m 2,7 m/s (1 Bft) W45 265 0,00 min 5,22 klux 0,6 C 2,4 C
10.01.2004 12:40 5,0 C 5,6 C 73 % 1014 hPa 0,0 l/m 2,8 m/s (1 Bft) W22.5 260 0,00 min 7,09 klux 0,6 C 2,1 C
10.01.2004 12:45 5,0 C 5,5 C 73 % 1014 hPa 0,0 l/m 3,3 m/s (1 Bft) W-SW22.5 245 0,00 min 5,58 klux 0,6 C 0,8 C
10.01.2004 12:50 4,9 C 5,5 C 74 % 1014 hPa 0,0 l/m 3,3 m/s (1 Bft) W-SW22.5 255 0,00 min 10,1 klux 0,7 C 0,8 C
10.01.2004 12:55 5,0 C 5,5 C 74 % 1014 hPa 0,0 l/m 3,7 m/s (1 Bft) W-SW22.5 250 0,00 min 10,1 klux 0,8 C 0,0 C
10.01.2004 13:00 5,1 C 5,5 C 74 % 1014 hPa 0,0 l/m 2,6 m/s (1 Bft) W-SW45 240 0,00 min 9,3 klux 0,9 C 2,5 C
10.01.2004 13:05 5,0 C 5,5 C 73 % 1014 hPa 0,0 l/m 2,3 m/s (1 Bft) W-SW 240 0,00 min 8,20 klux 0,6 C 3,4 C
10.01.2004 13:10 5,1 C 5,5 C 73 % 1014 hPa 0,0 l/m 3,2 m/s (1 Bft) W-SW 245 0,00 min 9,5 klux 0,7 C 1,1 C
10.01.2004 13:15 5,1 C 5,5 C 74 % 1014 hPa 0,0 l/m 1,8 m/s (1 Bft) SW22.5 235 0,00 min 9,6 klux 0,9 C 5,1 C
10.01.2004 13:20 5,2 C 5,5 C 73 % 1014 hPa 0,0 l/m 2,3 m/s (1 Bft) W-SW22.5 255 0,00 min 9,6 klux 0,8 C 3,7 C
10.01.2004 13:25 5,2 C 5,6 C 72 % 1014 hPa 0,0 l/m 2,7 m/s (1 Bft) W-SW 240 0,00 min 9,4 klux 0,6 C 2,6 C
10.01.2004 13:30 5,1 C 5,6 C 72 % 1014 hPa 0,0 l/m 2,2 m/s (1 Bft) W-SW 250 0,00 min 8,29 klux 0,5 C 3,8 C
10.01.2004 13:35 5,2 C 5,6 C 72 % 1014 hPa 0,0 l/m 4,1 m/s (1 Bft) W-SW22.5 240 0,00 min 9,2 klux 0,6 C -0,6 C
10.01.2004 13:40 5,1 C 5,6 C 72 % 1014 hPa 0,0 l/m 0,9 m/s (0 Bft) W-SW22.5 250 0,00 min 8,52 klux 0,5 C 5,1 C
10.01.2004 13:45 4,9 C 5,6 C 73 % 1015 hPa 0,0 l/m 4,8 m/s (1 Bft) W-SW22.5 240 0,00 min 9,00 klux 0,5 C -2,1 C
10.01.2004 13:50 4,9 C 5,6 C 73 % 1014 hPa 0,0 l/m 5,4 m/s (1 Bft) W-SW45 240 0,00 min 11,2 klux 0,5 C -3,1 C
10.01.2004 13:55 5,0 C 5,6 C 72 % 1014 hPa 0,0 l/m 4,9 m/s (1 Bft) W-SW45 245 0,00 min 11,7 klux 0,4 C -2,2 C
10.01.2004 14:00 5,0 C 5,6 C 72 % 1014 hPa 0,0 l/m 5,1 m/s (1 Bft) W-SW22.5 250 0,00 min 13,5 klux 0,4 C -2,6 C
10.01.2004 14:05 5,0 C 5,6 C 72 % 1014 hPa 0,0 l/m 5,4 m/s (1 Bft) W-SW22.5 245 0,00 min 11,7 klux 0,4 C -3,0 C
10.01.2004 14:10 4,9 C 5,6 C 73 % 1014 hPa 0,0 l/m 4,8 m/s (1 Bft) W-SW22.5 250 0,00 min 11,6 klux 0,5 C -2,2 C
10.01.2004 14:15 5,0 C 5,6 C 73 % 1014 hPa 0,0 l/m 2,5 m/s (1 Bft) SW22.5 230 0,00 min 8,47 klux 0,6 C 2,9 C
10.01.2004 14:20 4,9 C 5,6 C 73 % 1015 hPa 0,0 l/m 5,2 m/s (1 Bft) W-SW45 245 0,00 min 8,19 klux 0,5 C -2,8 C
10.01.2004 14:25 4,9 C 5,5 C 74 % 1015 hPa 0,0 l/m 4,9 m/s (1 Bft) W-SW22.5 240 0,00 min 8,38 klux 0,7 C -2,3 C
10.01.2004 14:30 4,8 C 5,5 C 73 % 1015 hPa 0,0 l/m 4,9 m/s (1 Bft) W-SW22.5 240 0,00 min 8,45 klux 0,4 C -2,5 C
10.01.2004 14:35 4,8 C 5,5 C 74 % 1015 hPa 0,0 l/m 4,8 m/s (1 Bft) W-SW45 245 0,00 min 7,63 klux 0,6 C -2,3 C
10.01.2004 14:40 4,8 C 5,5 C 74 % 1015 hPa 0,0 l/m 4,3 m/s (1 Bft) SW45 230 0,00 min 6,62 klux 0,6 C -1,4 C
10.01.2004 14:45 4,8 C 5,4 C 74 % 1015 hPa 0,0 l/m 4,3 m/s (1 Bft) W-SW22.5 245 0,00 min 6,31 klux 0,6 C -1,5 C
10.01.2004 14:50 4,7 C 5,4 C 73 % 1015 hPa 0,0 l/m 4,2 m/s (1 Bft) W-SW22.5 240 0,00 min 4,09 klux 0,3 C -1,4 C
10.01.2004 14:55 4,6 C 5,3 C 73 % 1015 hPa 0,0 l/m 4,0 m/s (1 Bft) SW45 235 0,00 min 2,08 klux 0,2 C -1,1 C
10.01.2004 15:00 4,5 C 5,3 C 74 % 1015 hPa 0,0 l/m 3,3 m/s (1 Bft) W-SW45 240 0,00 min 3,09 klux 0,3 C 0,2 C
10.01.2004 15:05 4,5 C 5,2 C 74 % 1015 hPa 0,0 l/m 4,1 m/s (1 Bft) W-SW45 240 0,00 min 3,55 klux 0,3 C -1,4 C
10.01.2004 15:10 4,5 C 5,2 C 74 % 1015 hPa 0,0 l/m 3,9 m/s (1 Bft) SW22.5 235 0,00 min 5,29 klux 0,3 C -1,0 C
10.01.2004 15:15 4,5 C 5,2 C 74 % 1015 hPa 0,0 l/m 3,1 m/s (1 Bft) W-SW22.5 240 0,00 min 8,65 klux 0,3 C 0,8 C
10.01.2004 15:20 4,5 C 5,2 C 74 % 1015 hPa 0,0 l/m 3,4 m/s (1 Bft) W-SW45 240 0,00 min 7,60 klux 0,3 C -0,1 C
10.01.2004 15:25 4,4 C 5,2 C 73 % 1015 hPa 0,0 l/m 3,3 m/s (1 Bft) SW45 230 0,00 min 5,32 klux -0,0 C 0,1 C
10.01.2004 15:30 4,4 C 5,2 C 73 % 1015 hPa 0,0 l/m 5,1 m/s (1 Bft) SW45 235 0,00 min 4,86 klux -0,0 C -3,2 C
10.01.2004 15:35 4,4 C 5,0 C 73 % 1015 hPa 0,0 l/m 3,7 m/s (1 Bft) W-SW45 245 0,00 min 3,54 klux -0,0 C -0,7 C
10.01.2004 15:40 4,3 C 5,0 C 73 % 1015 hPa 0,0 l/m 3,6 m/s (1 Bft) W-SW45 240 0,00 min 2,93 klux -0,1 C -0,5 C
10.01.2004 15:45 4,2 C 5,0 C 73 % 1015 hPa 0,0 l/m 2,7 m/s (1 Bft) W-SW67.5 240 0,00 min 3,27 klux -0,2 C 1,5 C
10.01.2004 15:50 4,2 C 4,9 C 73 % 1015 hPa 0,0 l/m 2,8 m/s (1 Bft) W-SW22.5 250 0,00 min 3,09 klux -0,2 C 1,2 C
10.01.2004 15:55 4,1 C 4,9 C 73 % 1015 hPa 0,0 l/m 3,2 m/s (1 Bft) W-SW45 240 0,00 min 2,32 klux -0,3 C 0,1 C
10.01.2004 16:00 4,1 C 4,8 C 73 % 1015 hPa 0,0 l/m 3,1 m/s (1 Bft) W-SW22.5 240 0,00 min 2,22 klux -0,3 C 0,4 C
10.01.2004 16:05 4,0 C 4,8 C 73 % 1015 hPa 0,0 l/m 3,4 m/s (1 Bft) W-SW22.5 245 0,00 min 2,19 klux -0,4 C -0,5 C
10.01.2004 16:10 4,0 C 4,7 C 73 % 1016 hPa 0,0 l/m 3,8 m/s (1 Bft) W-SW22.5 240 0,00 min 2,19 klux -0,4 C -1,3 C
10.01.2004 16:15 4,0 C 4,6 C 73 % 1016 hPa 0,0 l/m 4,4 m/s (1 Bft) W-SW45 250 0,00 min 1,28 klux -0,4 C -2,5 C
10.01.2004 16:20 3,9 C 4,6 C 74 % 1016 hPa 0,0 l/m 5,0 m/s (1 Bft) W-SW22.5 245 0,00 min 954 lux -0,3 C -3,7 C
10.01.2004 16:25 3,9 C 4,6 C 74 % 1016 hPa 0,0 l/m 4,1 m/s (1 Bft) W-SW22.5 250 0,00 min 669 lux -0,3 C -2,1 C
10.01.2004 16:30 3,9 C 4,5 C 74 % 1016 hPa 0,0 l/m 4,2 m/s (1 Bft) W-SW22.5 245 0,00 min 518 lux -0,3 C -2,3 C
10.01.2004 16:35 3,8 C 4,5 C 74 % 1016 hPa 0,0 l/m 3,8 m/s (1 Bft) W-SW45 250 0,00 min 390 lux -0,4 C -1,5 C
10.01.2004 16:40 3,8 C 4,4 C 75 % 1016 hPa 0,0 l/m 4,2 m/s (1 Bft) W-SW45 240 0,00 min 240 lux -0,2 C -2,4 C
10.01.2004 16:45 3,7 C 4,3 C 74 % 1016 hPa 0,0 l/m 2,5 m/s (1 Bft) SW67.5 230 0,00 min 236 lux -0,5 C 1,3 C
10.01.2004 16:50 3,6 C 4,2 C 74 % 1016 hPa 0,0 l/m 4,6 m/s (1 Bft) SW45 225 0,00 min 196 lux -0,6 C -3,4 C
10.01.2004 16:55 3,3 C 4,1 C 75 % 1016 hPa 0,0 l/m 5,3 m/s (1 Bft) SW67.5 225 0,00 min 160 lux -0,7 C -5,0 C
10.01.2004 17:00 3,1 C 3,9 C 75 % 1016 hPa 0,0 l/m 4,3 m/s (1 Bft) SW45 230 0,00 min 100 lux -0,9 C -3,4 C
10.01.2004 17:05 3,0 C 3,8 C 76 % 1016 hPa 0,0 l/m 2,6 m/s (1 Bft) W-SW22.5 240 0,00 min 59 lux -0,8 C 0,3 C
10.01.2004 17:10 3,0 C 3,7 C 76 % 1016 hPa 0,0 l/m 2,6 m/s (1 Bft) W45 260 0,00 min 31 lux -0,8 C 0,5 C
10.01.2004 17:15 2,8 C 3,4 C 78 % 1016 hPa 0,0 l/m 1,3 m/s (1 Bft) W-SW45 245 0,00 min 17 lux -0,6 C 2,8 C
10.01.2004 17:20 2,4 C 3,2 C 78 % 1016 hPa 0,0 l/m 1,8 m/s (1 Bft) W-SW 245 0,00 min 11 lux -1,0 C 2,3 C
10.01.2004 17:25 2,5 C 3,2 C 79 % 1016 hPa 0,0 l/m 0,1 m/s (0 Bft) W-SW 250 0,00 min 5 lux -0,8 C 2,5 C
10.01.2004 17:30 2,1 C 3,0 C 79 % 1016 hPa 0,0 l/m 0,3 m/s (0 Bft) W-SW22.5 255 0,00 min 1 lux -1,2 C 2,1 C
10.01.2004 17:35 2,4 C 3,0 C 80 % 1016 hPa 0,0 l/m 2,0 m/s (1 Bft) W-SW45 240 0,00 min 0 lux -0,7 C 1,6 C
10.01.2004 17:40 2,4 C 2,9 C 80 % 1016 hPa 0,0 l/m 1,3 m/s (1 Bft) SW 235 0,00 min 0 lux -0,7 C 2,4 C
10.01.2004 17:45 2,0 C 2,9 C 80 % 1016 hPa 0,0 l/m 0,9 m/s (0 Bft) SW 225 0,00 min 0 lux -1,1 C 2,0 C
10.01.2004 17:50 2,0 C 2,8 C 81 % 1016 hPa 0,0 l/m 0,8 m/s (0 Bft) SW 230 0,00 min 0 lux -0,9 C 2,0 C
10.01.2004 17:55 2,0 C 2,7 C 81 % 1016 hPa 0,0 l/m 0,0 m/s (0 Bft) SW 230 0,00 min 0 lux -0,9 C 2,0 C
10.01.2004 18:00 2,0 C 2,6 C 81 % 1016 hPa 0,0 l/m 0,0 m/s (0 Bft) SW 230 0,00 min 0 lux -0,9 C 2,0 C
10.01.2004 18:05 1,9 C 2,6 C 82 % 1016 hPa 0,0 l/m 0,0 m/s (0 Bft) SW 230 0,00 min 0 lux -0,8 C 1,9 C
10.01.2004 18:10 1,8 C 2,6 C 82 % 1016 hPa 0,0 l/m 0,0 m/s (0 Bft) SW 230 0,00 min 0 lux -0,9 C 1,8 C
10.01.2004 18:15 1,8 C 2,5 C 83 % 1016 hPa 0,0 l/m 0,0 m/s (0 Bft) S-SW 195 0,00 min 0 lux -0,8 C 1,8 C
10.01.2004 18:20 1,8 C 2,4 C 83 % 1016 hPa 0,0 l/m 0,0 m/s (0 Bft) SW 230 0,00 min 0 lux -0,8 C 1,8 C
10.01.2004 18:25 1,3 C 2,3 C 83 % 1016 hPa 0,0 l/m 0,0 m/s (0 Bft) SW 230 0,00 min 0 lux -1,3 C 1,3 C
10.01.2004 18:30 1,1 C 2,2 C 83 % 1016 hPa 0,0 l/m 0,0 m/s (0 Bft) SW 230 0,00 min 0 lux -1,5 C 1,1 C
10.01.2004 18:35 0,9 C 2,0 C 84 % 1016 hPa 0,0 l/m 0,0 m/s (0 Bft) SW 230 0,00 min 0 lux -1,5 C 0,9 C
10.01.2004 18:40 0,7 C 1,9 C 84 % 1016 hPa 0,0 l/m 0,0 m/s (0 Bft) SW 225 0,00 min 0 lux -1,7 C 0,7 C
10.01.2004 18:45 0,5 C 1,7 C 84 % 1016 hPa 0,0 l/m 0,0 m/s (0 Bft) SW 230 0,00 min 0 lux -1,9 C 0,5 C
10.01.2004 18:50 0,5 C 1,6 C 85 % 1016 hPa 0,0 l/m 0,0 m/s (0 Bft) SW 225 0,00 min 0 lux -1,7 C 0,5 C
10.01.2004 18:55 0,2 C 1,5 C 85 % 1016 hPa 0,0 l/m 0,0 m/s (0 Bft) SW 225 0,00 min 0 lux -2,0 C 0,2 C
10.01.2004 19:00 0,3 C 1,4 C 85 % 1016 hPa 0,0 l/m 0,0 m/s (0 Bft) SW 225 0,00 min 0 lux -1,9 C 0,3 C
10.01.2004 19:05 0,4 C 1,3 C 86 % 1016 hPa 0,0 l/m 0,0 m/s (0 Bft) SW 225 0,00 min 0 lux -1,7 C 0,4 C
10.01.2004 19:10 0,4 C 1,2 C 87 % 1016 hPa 0,0 l/m 0,0 m/s (0 Bft) SW 230 0,00 min 0 lux -1,5 C 0,4 C
10.01.2004 19:15 0,4 C 1,2 C 87 % 1016 hPa 0,0 l/m 0,0 m/s (0 Bft) SW 230 0,00 min 0 lux -1,5 C 0,4 C
10.01.2004 19:20 0,5 C 1,1 C 88 % 1016 hPa 0,0 l/m 0,4 m/s (0 Bft) SW 230 0,00 min 0 lux -1,3 C 0,5 C
10.01.2004 19:25 0,5 C 1,0 C 88 % 1016 hPa 0,0 l/m 0,0 m/s (0 Bft) SW 230 0,00 min 0 lux -1,3 C 0,5 C
10.01.2004 19:30 0,3 C 1,0 C 88 % 1016 hPa 0,0 l/m 0,0 m/s (0 Bft) SW 230 0,00 min 0 lux -1,4 C 0,3 C
10.01.2004 19:35 0,3 C 0,9 C 88 % 1016 hPa 0,0 l/m 0,0 m/s (0 Bft) SW 230 0,00 min 0 lux -1,4 C 0,3 C
10.01.2004 19:40 0,4 C 0,9 C 88 % 1016 hPa 0,0 l/m 0,0 m/s (0 Bft) SW 230 0,00 min 0 lux -1,3 C 0,4 C
10.01.2004 19:45 0,7 C 0,9 C 88 % 1016 hPa 0,0 l/m 0,0 m/s (0 Bft) SW 230 0,00 min 0 lux -1,1 C 0,7 C
10.01.2004 19:50 0,7 C 1,1 C 88 % 1016 hPa 0,0 l/m 0,0 m/s (0 Bft) SW 230 0,00 min 0 lux -1,1 C 0,7 C
10.01.2004 19:55 0,9 C 1,1 C 89 % 1016 hPa 0,0 l/m 0,0 m/s (0 Bft) SW 230 0,00 min 0 lux -0,7 C 0,9 C
10.01.2004 20:00 0,9 C 1,3 C 89 % 1016 hPa 0,0 l/m 0,0 m/s (0 Bft) SW 230 0,00 min 0 lux -0,7 C 0,9 C
10.01.2004 20:05 0,9 C 1,3 C 88 % 1016 hPa 0,0 l/m 0,0 m/s (0 Bft) SW 230 0,00 min 0 lux -0,9 C 0,9 C
10.01.2004 20:10 1,0 C 1,4 C 88 % 1016 hPa 0,0 l/m 0,0 m/s (0 Bft) SW 230 0,00 min 0 lux -0,8 C 1,0 C
10.01.2004 20:15 1,1 C 1,4 C 88 % 1016 hPa 0,0 l/m 0,2 m/s (0 Bft) SW 230 0,00 min 0 lux -0,7 C 1,1 C
10.01.2004 20:20 1,1 C 1,5 C 88 % 1016 hPa 0,0 l/m 0,0 m/s (0 Bft) SW 230 0,00 min 0 lux -0,7 C 1,1 C
10.01.2004 20:25 1,1 C 1,5 C 88 % 1016 hPa 0,0 l/m 0,0 m/s (0 Bft) SW 230 0,00 min 0 lux -0,7 C 1,1 C
10.01.2004 20:30 1,2 C 1,6 C 87 % 1016 hPa 0,0 l/m 0,0 m/s (0 Bft) SW 230 0,00 min 0 lux -0,7 C 1,2 C
10.01.2004 20:35 1,3 C 1,6 C 88 % 1016 hPa 0,0 l/m 0,0 m/s (0 Bft) SW 230 0,00 min 0 lux -0,5 C 1,3 C
10.01.2004 20:40 1,4 C 1,7 C 88 % 1016 hPa 0,0 l/m 0,0 m/s (0 Bft) SW 230 0,00 min 0 lux -0,4 C 1,4 C
10.01.2004 20:45 1,1 C 1,8 C 87 % 1016 hPa 0,0 l/m 0,0 m/s (0 Bft) SW 230 0,00 min 0 lux -0,8 C 1,1 C
10.01.2004 20:50 1,1 C 1,8 C 87 % 1016 hPa 0,0 l/m 0,0 m/s (0 Bft) SW 230 0,00 min 0 lux -0,8 C 1,1 C
10.01.2004 20:55 1,1 C 1,8 C 87 % 1016 hPa 0,0 l/m 0,0 m/s (0 Bft) SW 230 0,00 min 0 lux -0,8 C 1,1 C
10.01.2004 21:00 1,2 C 1,9 C 87 % 1016 hPa 0,0 l/m 0,0 m/s (0 Bft) SW 230 0,00 min 0 lux -0,7 C 1,2 C
10.01.2004 21:05 1,2 C 1,9 C 87 % 1016 hPa 0,0 l/m 0,0 m/s (0 Bft) SW 230 0,00 min 0 lux -0,7 C 1,2 C
10.01.2004 21:10 1,3 C 1,9 C 87 % 1016 hPa 0,0 l/m 0,0 m/s (0 Bft) SW 230 0,00 min 0 lux -0,6 C 1,3 C
10.01.2004 21:15 1,5 C 2,0 C 87 % 1016 hPa 0,0 l/m 0,0 m/s (0 Bft) SW 230 0,00 min 0 lux -0,4 C 1,5 C
10.01.2004 21:20 1,6 C 2,0 C 87 % 1016 hPa 0,0 l/m 1,0 m/s (0 Bft) S-SO67.5 165 0,00 min 0 lux -0,3 C 1,6 C
10.01.2004 21:25 1,7 C 2,0 C 87 % 1016 hPa 0,0 l/m 1,4 m/s (1 Bft) O 95 0,00 min 0 lux -0,2 C 1,7 C
10.01.2004 21:30 1,8 C 2,1 C 87 % 1016 hPa 0,0 l/m 0,0 m/s (0 Bft) O 95 0,00 min 0 lux -0,1 C 1,8 C
10.01.2004 21:35 1,9 C 2,1 C 87 % 1016 hPa 0,0 l/m 0,0 m/s (0 Bft) O 95 0,00 min 0 lux -0,0 C 1,9 C
10.01.2004 21:40 1,8 C 2,2 C 87 % 1016 hPa 0,0 l/m 0,0 m/s (0 Bft) O 95 0,00 min 0 lux -0,1 C 1,8 C
10.01.2004 21:45 1,6 C 2,2 C 86 % 1016 hPa 0,0 l/m 0,0 m/s (0 Bft) O 95 0,00 min 0 lux -0,5 C 1,6 C
10.01.2004 21:50 1,4 C 2,2 C 86 % 1016 hPa 0,0 l/m 0,0 m/s (0 Bft) O 95 0,00 min 0 lux -0,7 C 1,4 C
10.01.2004 21:55 1,5 C 2,2 C 86 % 1016 hPa 0,0 l/m 0,0 m/s (0 Bft) O 95 0,00 min 0 lux -0,6 C 1,5 C
10.01.2004 22:00 1,5 C 2,2 C 87 % 1016 hPa 0,0 l/m 0,0 m/s (0 Bft) O 95 0,00 min 0 lux -0,4 C 1,5 C
10.01.2004 22:05 1,6 C 2,2 C 87 % 1016 hPa 0,0 l/m 0,0 m/s (0 Bft) O 95 0,00 min 0 lux -0,3 C 1,6 C
10.01.2004 22:10 1,7 C 2,2 C 87 % 1016 hPa 0,0 l/m 0,0 m/s (0 Bft) O 95 0,00 min 0 lux -0,2 C 1,7 C
10.01.2004 22:15 1,7 C 2,3 C 87 % 1016 hPa 0,0 l/m 0,0 m/s (0 Bft) O 95 0,00 min 0 lux -0,2 C 1,7 C
10.01.2004 22:20 1,8 C 2,3 C 87 % 1016 hPa 0,0 l/m 0,0 m/s (0 Bft) O 95 0,00 min 0 lux -0,1 C 1,8 C
10.01.2004 22:25 1,9 C 2,3 C 87 % 1016 hPa 0,0 l/m 0,0 m/s (0 Bft) O 95 0,00 min 0 lux -0,0 C 1,9 C
10.01.2004 22:30 1,9 C 2,4 C 87 % 1016 hPa 0,0 l/m 0,0 m/s (0 Bft) O 95 0,00 min 0 lux -0,0 C 1,9 C
10.01.2004 22:35 1,9 C 2,4 C 87 % 1016 hPa 0,0 l/m 0,0 m/s (0 Bft) O 95 0,00 min 0 lux -0,0 C 1,9 C
10.01.2004 22:40 2,0 C 2,5 C 87 % 1016 hPa 0,0 l/m 0,0 m/s (0 Bft) O 95 0,00 min 0 lux 0,1 C 2,0 C
10.01.2004 22:45 2,0 C 2,5 C 87 % 1016 hPa 0,0 l/m 0,0 m/s (0 Bft) O 95 0,00 min 0 lux 0,1 C 2,0 C
10.01.2004 22:50 2,0 C 2,5 C 87 % 1016 hPa 0,0 l/m 0,0 m/s (0 Bft) O 95 0,00 min 0 lux 0,1 C 2,0 C
10.01.2004 22:55 1,8 C 2,5 C 87 % 1016 hPa 0,0 l/m 0,0 m/s (0 Bft) O 95 0,00 min 0 lux -0,1 C 1,8 C
10.01.2004 23:00 1,7 C 2,5 C 87 % 1016 hPa 0,0 l/m 0,0 m/s (0 Bft) O 95 0,00 min 0 lux -0,2 C 1,7 C
10.01.2004 23:05 1,7 C 2,5 C 87 % 1016 hPa 0,0 l/m 0,0 m/s (0 Bft) O 95 0,00 min 0 lux -0,2 C 1,7 C
10.01.2004 23:10 1,8 C 2,5 C 88 % 1015 hPa 0,0 l/m 0,0 m/s (0 Bft) O 95 0,00 min 0 lux 0,0 C 1,8 C
10.01.2004 23:15 1,8 C 2,5 C 88 % 1015 hPa 0,0 l/m 0,0 m/s (0 Bft) O 95 0,00 min 0 lux 0,0 C 1,8 C
10.01.2004 23:20 1,8 C 2,5 C 87 % 1015 hPa 0,0 l/m 0,0 m/s (0 Bft) O 95 0,00 min 0 lux -0,1 C 1,8 C
10.01.2004 23:25 1,8 C 2,5 C 87 % 1015 hPa 0,0 l/m 0,0 m/s (0 Bft) O 95 0,00 min 0 lux -0,1 C 1,8 C
10.01.2004 23:30 1,9 C 2,5 C 87 % 1015 hPa 0,0 l/m 0,0 m/s (0 Bft) O 95 0,00 min 0 lux -0,0 C 1,9 C
10.01.2004 23:35 2,0 C 2,5 C 87 % 1015 hPa 0,0 l/m 0,0 m/s (0 Bft) O 95 0,00 min 0 lux 0,1 C 2,0 C
10.01.2004 23:40 2,0 C 2,5 C 87 % 1015 hPa 0,0 l/m 0,0 m/s (0 Bft) O 95 0,00 min 0 lux 0,1 C 2,0 C
10.01.2004 23:45 2,2 C 2,5 C 87 % 1015 hPa 0,0 l/m 0,0 m/s (0 Bft) O 95 0,00 min 0 lux 0,3 C 2,2 C
10.01.2004 23:50 2,1 C 2,6 C 87 % 1015 hPa 0,0 l/m 0,0 m/s (0 Bft) O 95 0,00 min 0 lux 0,2 C 2,1 C
10.01.2004 23:55 2,2 C 2,6 C 87 % 1015 hPa 0,0 l/m 0,0 m/s (0 Bft) O 95 0,00 min 0 lux 0,3 C 2,2 C
_ Min-Zeit 18:55 19:35 13:25 00:00 - 17:55 - - - - 18:55 01:55
Minimum _ 0,2 C 0,9 C 72 % 1005 hPa - 0,0 m/s (0 Bft) - - - - -2,0 C -7,7 C
_ Max-Zeit 12:25 12:15 19:55 16:10 04:50 01:55 - - 00:00 11:30 07:20 13:15
Maximum _ 5,2 C 5,6 C 89 % 1016 hPa 0,4 l/m 7,4 m/s
W-SW (4 Bft)
- - 0,00 min 20,2 klux 1,6 C 5,1 C
Durchschnitt _ 3,2 C 3,7 C 82 % 1013 hPa #0,7 l/m 2,4 m/s (2 Bft) W-SW - #0 min. 2,27 klux 0,4 C 0,3 C